Content
SEND FEEDBACK

Daily
Averages
Monthly
Summary
Turkmenistan

ASHGABAT, TURKMENISTAN


Home > Asia > Turkmenistan
Elevation: 236 meters     Latitude: 37 58N     Longitude: 058 20E

WEATHER
 
SELECT A DAY
Number of Records: 181,286;   Date Range: 3/15/97 - 10/24/14
 
SHARE

PRINT THIS DATA

[ ← Previous Day ]
WEATHER ALMANAC - 7 APRIL, 2014
[ Next Day → ]
[ °F ]   °C
Weather ElementAverageHighLow
Temperature10 °C15 °C (5:00 pm)6 °C (5:00 am)
Dewpoint-1.1 °C2 °C (2:00 am)-3.9 °C (8:00 pm)
Humidity44.8 %66 % (2:00 am)19 % (8:00 pm)
Barometer1030.8 hPa1036.2 hPa (8:00 am)1025.1 hPa (10:30 pm)
Wind Speed16.6 km/h25.3 km/h (7:00 pm)
Weather ElementAverage
Visibility10 km
Wind DirectionSSE (156.4 °)

Weather ElementTotal
Precipitation---
Heating Degree Days7.8 (Base 18.3)
Growing Degree Days0.5 (Base 10)
Averaged from 33 records on 7 April, 2014
WEATHER CONDITIONS BREAKOUT
WIND DIRECTION BREAKOUT
WEATHER BY HOUR - 7 APRIL, 2014
[ °F ]   °C
Local TimeTemperatureDewpointHumidityBarometerVisibilityWind DirectionWind SpeedGust SpeedPrecipitationEventsConditions
1:00 AM8 °C1 °C62 %1031.2 hPa10 kmWNW (290°)10.8 km/hOvercast
2:00 AM6.7 °C-1.1 °C45 %1033.2 hPa9.7 kmNW (310°)18 km/hOvercast
2:00 AM8 °C2 °C66 %1032.2 hPa10 kmNW (320°)14.3 km/hOvercast
3:00 AM8 °C1 °C62 %1033.2 hPa10 kmWNW (300°)14.3 km/hOvercast
4:00 AM7 °C0 °C61 %1033.2 hPa10 kmNNW (330°)18 km/hOvercast
5:00 AM6.1 °C-0.6 °C50 %1034.9 hPa9.7 kmNNW (340°)10.8 km/hOvercast
5:00 AM6 °C-1 °C61 %1033.2 hPa10 kmNNW (340°)10.8 km/hOvercast
6:00 AM6 °C-2 °C57 %1034.2 hPa10 kmNorth (350°)7.2 km/hOvercast
7:00 AM6 °C-2 °C57 %1034.2 hPa10 kmVariable3.5 km/hOvercast
8:00 AM6.1 °C-1.7 °C47 %1036.2 hPa9.7 kmEast (80°)3.5 km/hOvercast
8:00 AM6 °C-2 °C57 %1035.2 hPa10 kmVariable3.5 km/hOvercast
9:00 AM7 °C-1 °C57 %1034.2 hPa10 kmEast (80°)10.8 km/hOvercast
10:00 AM8 °C-1 °C53 %1034.2 hPa10 kmESE (120°)18 km/hOvercast
11:00 AM8.3 °C0 °C43 %1035.6 hPa9.7 kmESE (120°)21.6 km/hOvercast
11:00 AM9 °C0 °C54 %1034.2 hPa10 kmESE (110°)18 km/hOvercast
12:00 PM9 °C0 °C54 %1033.2 hPa10 kmESE (110°)18 km/hOvercast
1:00 PM11 °C-1 °C44 %1032.2 hPa10 kmESE (120°)21.6 km/hMostly Cloudy
2:00 PM12.8 °C-1.1 °C27 %1032.5 hPa9.7 kmSE (140°)21.6 km/hScattered Clouds
2:00 PM13 °C-1 °C38 %1031.2 hPa10 kmSE (130°)18 km/hMostly Cloudy
3:00 PM14 °C-1 °C36 %1030.1 hPa10 kmEast (100°)18 km/hPartly Cloudy
4:00 PM14 °C-1 °C36 %1029.1 hPa10 kmESE (110°)18 km/hPartly Cloudy
5:00 PM15 °C-0.6 °C22 %1028.8 hPa9.7 kmSE (140°)18 km/hClear
5:00 PM15 °C-1 °C34 %1028.1 hPa10 kmESE (120°)18 km/hPartly Cloudy
6:00 PM15 °C-2 °C31 %1028.1 hPa10 kmESE (110°)21.6 km/hClear
7:00 PM14 °C-2 °C33 %1027.1 hPa10 kmEast (100°)25.3 km/hClear
8:00 PM13 °C-2 °C36 %1026.1 hPa10 kmEast (100°)21.6 km/hPartly Cloudy
8:00 PM12.8 °C-3.9 °C19 %1028.1 hPa9.7 kmEast (100°)25.3 km/hClear
9:00 PM12 °C-3 °C35 %1026.1 hPa10 kmESE (110°)18 km/hClear
9:30 PM12 °C-2 °C38 %1026.1 hPa10 kmESE (110°)25.3 km/hClear
10:00 PM11 °C-2 °C41 %1026.1 hPa10 kmESE (120°)18 km/hClear
10:30 PM11 °C-1 °C44 %1025.1 hPa10 kmESE (110°)21.6 km/hClear
11:00 PM10 °C-0.6 °C35 %1026.1 hPa9.7 kmESE (120°)18 km/h
11:00 PM10 °C-2 °C43 %1025.1 hPa10 kmESE (120°)18 km/hClear
Hourly data recorded from UTAA, located 0 kilometers away from Ashgabat, Turkmenistan







STORIES FROM OUR PARTNERS